This is the latest recevied weather packets stored in our database for station/object HB4LO-13. If no packets are shown the sender has not sent any weather packets the latest 1 day(s).
| Time | Temp. | Humidity | Pressure | Rain* | Wind** | Luminosity | Snow |
|---|---|---|---|---|---|---|---|
| 1777984926 | 14.44° C | 62% | - | 0 mm | 0.45 m/s, 163° | - | - |
| 1777984866 | 14.44° C | 62% | - | 0 mm | 1.34 m/s, 171° | - | - |
| 1777984806 | 14.44° C | 62% | - | 0 mm | 0.45 m/s, 174° | - | - |
| 1777984746 | 14.44° C | 62% | - | 0 mm | 0.89 m/s, 171° | - | - |
| 1777984686 | 14.44° C | 62% | - | 0 mm | 0.89 m/s, 167° | - | - |
| 1777984626 | 14.44° C | 62% | - | 0 mm | 0.89 m/s, 174° | - | - |
| 1777984566 | 14.44° C | 62% | - | 0 mm | 0.45 m/s, 173° | - | - |
| 1777984506 | 14.44° C | 62% | - | 0 mm | 0.89 m/s, 171° | - | - |
| 1777984446 | 14.44° C | 62% | - | 0 mm | 1.34 m/s, 175° | - | - |
| 1777984386 | 14.44° C | 62% | - | 0 mm | 0.45 m/s, 171° | - | - |
| 1777984326 | 15° C | 62% | - | 0 mm | 1.34 m/s, 155° | - | - |
| 1777984266 | 15° C | 62% | - | 0 mm | 1.34 m/s, 185° | - | - |
| 1777984206 | 15° C | 62% | - | 0 mm | 1.34 m/s, 187° | - | - |
| 1777984146 | 15° C | 62% | - | 0 mm | 1.79 m/s, 185° | - | - |
| 1777984086 | 15° C | 62% | - | 0 mm | 1.34 m/s, 174° | - | - |
| 1777984026 | 15° C | 62% | - | 0 mm | 2.24 m/s, 183° | - | - |
| 1777983966 | 15° C | 62% | - | 0 mm | 2.68 m/s, 166° | - | - |
| 1777983906 | 15° C | 62% | - | 0 mm | 2.24 m/s, 172° | - | - |
| 1777983846 | 15° C | 62% | - | 0.25 mm | 2.24 m/s, 190° | - | - |
| 1777983786 | 15.56° C | 62% | - | 0.25 mm | 2.24 m/s, 185° | - | - |
| 1777983726 | 15.56° C | 62% | - | 0.25 mm | 1.79 m/s, 183° | - | - |
| 1777983666 | 15.56° C | 62% | - | 0.25 mm | 0.89 m/s, 174° | - | - |
| 1777983606 | 15.56° C | 62% | - | 0.25 mm | 1.34 m/s, 188° | - | - |
| 1777983546 | 15.56° C | 62% | - | 0.25 mm | 2.24 m/s, 212° | - | - |
| 1777983486 | 15.56° C | 62% | - | 0.25 mm | 2.24 m/s, 168° | - | - |
* Rain latest hour (hover to see other rain measurements)
** Current wind speed in m/s (hover to see current wind gust speed)